Weather Service Report


896 
ASUS46 KPQR 290910
RWROR 

OREGON REGIONAL WEATHER ROUNDUP
NATIONAL WEATHER SERVICE PORTLAND OR
200 AM PDT SUN MAR 29 2015

NOTE: "FAIR" INDICATES FEW OR NO CLOUDS BELOW 12,000 FEET WITH
NO SIGNIFICANT WEATHER AND/OR OBSTRUCTIONS TO VISIBILITY.

ORZ001>013-291000-
NORTHWEST OREGON

  
CITY           SKY/WX    TMP DP  RH WIND       PRES   REMARKS
ASTORIA        CLOUDY    47  44  90 E6        30.31F                  
NEWPORT        MOCLDY    45  45 100 E5        30.36F                  
PORTLAND       CLOUDY    49  44  83 SE5       30.34F                  
VANCOUVER WA   CLOUDY    51  43  74 SE3       30.33F                  
SCAPPOOSE      CLOUDY    47  44  90 W3        30.33F                  
HILLSBORO      CLOUDY    50  45  83 CALM      30.33F                  
AURORA         MOCLDY    48  44  86 CALM      30.34F                  
MCMINNVILLE    MOCLDY    49  45  86 CALM      30.34S                  
SALEM          MOCLDY    47  43  86 S3        30.33S                  
CORVALLIS      MOCLDY    46  43  87 W5        30.35S                  
EUGENE         CLOUDY    47  42  83 S6        30.34S                  
$$

ORZ021-028-291000-
SOUTHWEST OREGON

  
CITY           SKY/WX    TMP DP  RH WIND       PRES   REMARKS
NORTH BEND     MOCLDY    48  46  93 CALM      30.36F                  
BROOKINGS      MOCLDY    48  48 100 CALM      30.30R                  
ROSEBURG       PTCLDY    47  40  76 CALM      30.33S                  
SEXTON SUMMIT  CLEAR     47  29  49 CALM      30.30S                  
MEDFORD        PTCLDY    45  35  68 S5        30.31S                  
$$

ORZ014>016-041-291000-
COLUMBIA GORGE

  
CITY           SKY/WX    TMP DP  RH WIND       PRES   REMARKS
TROUTDALE      MOCLDY    48  43  82 E6        30.33F                  
THE DALLES     CLOUDY    50  42  74 CALM      30.32S                  
$$

ORZ029>031-041-044-049-050-061>064-502-503-505>511-291000-
EASTERN OREGON

  
CITY           SKY/WX    TMP DP  RH WIND       PRES   REMARKS
REDMOND        MOCLDY    34  26  72 S7        30.31S WCI  28          
BEND           MOCLDY    36  28  75 CALM      30.31S                  
PRINEVILLE     MOCLDY    30  27  86 CALM      30.32S                  
KLAMATH FALLS  CLEAR     31  27  85 CALM      30.29F                  
LAKEVIEW       CLEAR     34  19  55 N7        30.30F WCI  28          
HERMISTON      MOCLDY    42  36  79 SE7       30.31S                  
PENDLETON      MOCLDY    41  36  82 SE10      30.30F                  
JOHN DAY       MOCLDY    40  30  67 SE8       30.32S WCI  34          
MEACHAM        MOCLDY    30  28  92 CALM      30.30F                  
LA GRANDE      MOCLDY    37  27  65 CALM      30.32S                  
BAKER CITY     PTCLDY    28  26  92 CALM      30.33F                  
BURNS          MOCLDY    29  23  78 CALM      30.32F                  
ROME             N/A     33  12  41 W5        30.30F WCI  29          
ONTARIO        PTCLDY    37  29  72 W5        30.34S WCI  33          
$$

Return to Home page


Western Regional Climate Center, wrcc@dri.edu